Change the Weather History Date:

Saturday, November 30, 2013

  Actual Average Record
Temperature  
Mean Temperature -2 °F -  
Max Temperature 8 °F 22 °F 46 °F (2002)
Min Temperature -13 °F 10 °F -18 °F (1990)
Degree Days  
Heating Degree Days 68    
Moisture  
Dew Point -10 °F    
Average Humidity 79    
Maximum Humidity 86    
Minimum Humidity 75    
Precipitation  
Precipitation 0.00 in - - ()
Snow  
Snow 0.00 in - - ()
Snow Depth 8.00 in    
Sea Level Pressure  
Sea Level Pressure 30.21 in    
Wind  
Wind Speed 3 mph (NNW)    
Max Wind Speed 9 mph    
Max Gust Speed -    
Visibility 5 miles    
Events Snow    
Averages and records for this station are not official NWS values.
T = Trace of Precipitation, MM = Missing Value Source: NWS Daily Summary

Daily Weather History Graph

Daily Weather History Graph

Search for Another Location

Airport or City:

Trip Planner

Search our weather history database for the weather conditions in past years. The results will help you decide how hot, cold, wet, or windy it might be!

Date:

Astronomy

Nov. 30, 2013 Rise Set
Actual Time 9:44 AM AKST 3:51 PM AKST
Civil Twilight 8:46 AM AKST 4:49 PM AKST
Nautical Twilight 7:48 AM AKST 5:47 PM AKST
Astronomical Twilight 6:56 AM AKST 6:39 PM AKST
Moon 6:25 AM AKST (11/30) 2:58 PM AKST (11/30)
Length of Visible Light 8h 03m
Length of Day
6h 07m
Waning Crescent, 6% of the Moon is Illuminated
Nov 30
Waning Crescent
Dec 2
New
Dec 9
First Quarter
Dec 17
Full
Dec 25
Last Quarter

Hourly Weather History & Observations

Time (AKST) Temp. Windchill Dew Point Humidity Pressure Visibility Wind Dir Wind Speed Gust Speed Precip Events Conditions
12:01 AM -4.0 °F -16.3 °F -7.6 °F 85% 30.15 in 1.5 mi NW 5.8 mph - N/A   Overcast
12:11 AM -2.2 °F -12.5 °F -7.6 °F 78% 30.15 in 1.0 mi NW 4.6 mph - N/A   Mist
12:16 AM -4.0 °F -12.4 °F -7.6 °F 85% 30.15 in 1.0 mi NW 3.5 mph - N/A   Mist
12:21 AM -4.0 °F - -7.6 °F 85% 30.15 in 0.8 mi NNW 2.3 mph - N/A   Mist
12:26 AM -2.2 °F - -7.6 °F 78% 30.15 in 1.0 mi North 1.2 mph - N/A   Mist
12:31 AM -2.2 °F - -7.6 °F 78% 30.15 in 0.8 mi North 1.2 mph - N/A   Mist
12:36 AM -4.0 °F -12.4 °F -7.6 °F 85% 30.15 in 0.8 mi NW 3.5 mph - N/A   Mist
12:45 AM -2.2 °F -10.4 °F -7.6 °F 78% 30.15 in 0.8 mi WNW 3.5 mph - N/A Snow Light Snow
12:50 AM -2.2 °F - -7.6 °F 78% 30.15 in 1.0 mi NW 2.3 mph - N/A Snow Light Snow
12:55 AM -2.2 °F - -7.6 °F 78% 30.15 in 1.0 mi Calm Calm - N/A   Mist
12:58 AM -2.2 °F - -7.6 °F 78% 30.17 in 1.0 mi Calm Calm - 0.00 in   Mist
1:03 AM -4.0 °F - -9.4 °F 78% 30.16 in 1.2 mi ENE 1.2 mph - N/A   Overcast
1:08 AM -4.0 °F -12.4 °F -9.4 °F 78% 30.16 in 1.5 mi ESE 3.5 mph - N/A   Overcast
1:13 AM -5.8 °F -14.5 °F -9.4 °F 84% 30.16 in 1.8 mi ESE 3.5 mph - N/A   Overcast
1:18 AM -5.8 °F - -9.4 °F 84% 30.16 in 1.5 mi ESE 2.3 mph - N/A   Overcast
1:28 AM -5.8 °F - -11.2 °F 77% 30.17 in 1.5 mi Calm Calm - N/A   Overcast
1:33 AM -5.8 °F -16.7 °F -9.4 °F 84% 30.17 in 1.2 mi ENE 4.6 mph - N/A   Overcast
1:38 AM -5.8 °F - -11.2 °F 77% 30.17 in 1.0 mi Calm Calm - N/A   Mist
1:43 AM -5.8 °F - -9.4 °F 84% 30.18 in 1.0 mi Calm Calm - N/A   Mist
1:58 AM -4.4 °F - -9.2 °F 80% 30.19 in 1.0 mi Calm Calm - N/A   Mist
2:03 AM -4.0 °F - -9.4 °F 78% 30.18 in 1.2 mi North 1.2 mph - N/A   Overcast
2:08 AM -5.8 °F - -9.4 °F 84% 30.18 in 1.5 mi NNW 2.3 mph - N/A   Overcast
2:13 AM -5.8 °F - -11.2 °F 77% 30.18 in 1.8 mi Calm Calm - N/A   Overcast
2:28 AM -7.6 °F - -11.2 °F 84% 30.18 in 1.8 mi North 1.2 mph - N/A   Overcast
2:38 AM -7.6 °F - -13.0 °F 77% 30.19 in 2.0 mi NNW 2.3 mph - N/A   Overcast
2:53 AM -7.6 °F -16.5 °F -13.0 °F 77% 30.19 in 3.0 mi NW 3.5 mph - N/A   Overcast
2:58 AM -9.4 °F -18.6 °F -14.8 °F 77% 30.19 in 3.0 mi NW 3.5 mph - N/A   Overcast
3:06 AM -9.4 °F -22.7 °F -14.8 °F 77% 30.18 in 4.0 mi NW 5.8 mph - N/A   Overcast
3:07 AM -9.4 °F -22.7 °F -14.8 °F 77% 30.18 in 4.0 mi NW 5.8 mph - N/A Snow Light Snow
3:12 AM -7.6 °F -20.6 °F -13.0 °F 77% 30.18 in 7.0 mi NW 5.8 mph - N/A Snow Light Snow
3:16 AM -7.6 °F -20.6 °F -13.0 °F 77% 30.18 in 10.0 mi NW 5.8 mph - N/A   Overcast
3:36 AM -9.4 °F - -14.8 °F 77% 30.18 in 10.0 mi Calm Calm - N/A   Scattered Clouds
3:58 AM -9.2 °F - -14.4 °F 78% 30.19 in 10.0 mi Calm Calm - 0.00 in   Clear
4:20 AM -11.2 °F -20.6 °F -16.6 °F 77% 30.19 in 10.0 mi North 3.5 mph - N/A   Ice Crystals
4:26 AM -13.0 °F - -18.4 °F 77% 30.19 in 10.0 mi NNW 2.3 mph - N/A   Partly Cloudy
4:58 AM -12.5 °F - -18.2 °F 76% 30.21 in 10.0 mi NNW 2.3 mph - 0.00 in   Clear
5:58 AM -10.8 °F - -16.2 °F 77% 30.21 in 10.0 mi Calm Calm - N/A   Overcast
6:48 AM -7.6 °F -18.8 °F -13.0 °F 77% 30.20 in 2.0 mi NNW 4.6 mph - N/A   Overcast
6:53 AM -7.6 °F -20.6 °F -13.0 °F 77% 30.20 in 1.0 mi NNW 5.8 mph - N/A   Overcast
6:54 AM -7.6 °F -20.6 °F -13.0 °F 77% 30.21 in 1.0 mi NNW 5.8 mph - N/A Snow Light Snow
6:58 AM -7.6 °F - -13.0 °F 77% 30.21 in 1.2 mi NNW 2.3 mph - 0.00 in Snow Light Snow
7:00 AM -7.6 °F - -13.0 °F 77% 30.21 in 2.0 mi North 1.2 mph - N/A   Haze
7:05 AM -7.6 °F - -13.0 °F 77% 30.21 in 7.0 mi North 1.2 mph - N/A   Overcast
7:58 AM -6.9 °F -17.9 °F -12.1 °F 78% 30.21 in 10.0 mi NW 4.6 mph - 0.00 in   Scattered Clouds
8:42 AM -7.6 °F -22.1 °F -13.0 °F 77% 30.22 in 7.0 mi Variable 6.9 mph - N/A   Partly Cloudy
8:52 AM -7.6 °F -18.8 °F -13.0 °F 77% 30.21 in 7.0 mi NNW 4.6 mph - N/A   Partly Cloudy
8:58 AM -8.7 °F -17.8 °F -14.1 °F 77% 30.22 in 10.0 mi NNW 3.5 mph - N/A   Partly Cloudy
9:58 AM -12.1 °F - -18.0 °F 75% 30.22 in 7.0 mi Calm Calm - N/A   Partly Cloudy
10:58 AM -4.7 °F -17.2 °F -9.4 °F 80% 30.25 in 10.0 mi West 5.8 mph - N/A   Partly Cloudy
11:58 AM 2.8 °F -8.2 °F -1.1 °F 84% 30.25 in 10.0 mi WSW 5.8 mph - N/A   Clear
12:58 PM -0.4 °F -13.4 °F -4.9 °F 81% 30.27 in 10.0 mi WNW 6.9 mph - N/A   Clear
1:58 PM 1.4 °F -8.3 °F -3.3 °F 81% 30.29 in 10.0 mi NNW 4.6 mph - N/A   Clear
2:58 PM 8.6 °F -4.7 °F 5.2 °F 86% 30.29 in 10.0 mi West 9.2 mph - N/A   Clear
3:58 PM 1.2 °F -10.1 °F -4.2 °F 78% 30.29 in 10.0 mi NNW 5.8 mph - N/A   Clear
4:58 PM 0.7 °F - -3.6 °F 82% 30.31 in 10.0 mi Calm Calm - N/A   Clear
5:58 PM -0.6 °F -10.6 °F -4.7 °F 83% 30.33 in 10.0 mi NW 4.6 mph - N/A   Clear
6:58 PM -8.3 °F -21.4 °F -14.4 °F 75% 30.35 in 10.0 mi NW 5.8 mph - N/A   Clear
7:58 PM -4.4 °F -15.0 °F -9.4 °F 79% 30.36 in 10.0 mi NW 4.6 mph - N/A   Clear
8:58 PM -1.5 °F -9.5 °F -6.0 °F 81% 30.35 in 10.0 mi NNW 3.5 mph - N/A   Clear
9:58 PM -5.1 °F - -9.9 °F 80% 30.37 in 10.0 mi Calm Calm - N/A   Clear
10:58 PM 4.1 °F -6.7 °F 0.3 °F 84% 30.38 in 10.0 mi West 5.8 mph - N/A   Clear
11:58 PM -8.3 °F -21.4 °F -13.7 °F 77% 30.40 in 10.0 mi NW 5.8 mph - N/A   Clear